Theta_e
347 349 348 349 344 346 344 336 334 327 329 335 344 345 348 353 354 351 349 354 351 348 352 351 346 346 346 346 346 345 343 339 337 336 335 335 334 335
350 346 348 348 347 347 347 344 342 335 329 337 337 349 352 350 353 349 349 353 350 349 352 350 344 345 344 344 344 341 337 335 333 332 331 330 331 333
349 349 346 348 347 348 350 347 344 343 335 338 346 346 342 340 343 347 354 354 353 349 352 348 344 345 342 343 341 336 333 330 328 328 327 328 330 331
348 349 347 351 348 351 347 346 346 343 339 334 338 340 343 345 346 350 357 358 354 356 354 350 344 344 338 338 334 331 328 325 324 325 325 326 327 329
351 350 350 350 347 347 344 347 346 349 347 344 343 346 347 345 344 346 349 354 354 353 347 342 340 339 335 332 328 325 322 322 322 321 321 322 324 327
354 354 353 350 349 349 348 347 347 346 346 345 343 343 343 347 347 346 340 343 345 348 347 341 340 339 334 329 326 325 321 320 319 318 317 317 319 322
352 354 354 355 352 351 353 349 348 347 347 344 343 343 340 341 343 345 343 344 342 340 345 345 343 340 335 330 331 330 324 322 320 317 315 316 318 318
350 352 354 352 351 344 343 345 350 347 344 344 344 343 341 341 345 344 345 342 339 347 346 347 348 348 347 336 333 329 324 323 321 318 315 316 314 314
353 352 352 356 349 353 343 338 337 336 340 343 340 339 340 343 345 344 342 344 344 349 347 348 350 349 352 343 331 327 324 322 321 319 316 316 314 314
351 355 353 351 349 350 353 353 348 347 344 341 343 345 344 344 345 346 345 346 349 351 352 344 346 342 344 332 329 326 323 321 320 318 317 312 311 313
347 349 353 354 345 337 346 347 350 353 346 337 338 337 336 336 340 348 344 341 342 344 341 338 342 335 341 335 325 325 321 319 318 317 317 312 309 315
348 347 335 342 334 331 345 348 348 349 349 353 345 339 336 342 334 342 347 341 343 342 343 339 337 337 337 340 326 322 321 318 316 315 315 310 308 319
349 349 350 327 319 317 320 343 343 342 345 349 350 351 351 349 349 346 346 347 345 344 346 343 338 342 342 340 338 324 324 320 319 317 312 309 308 319
338 345 346 317 313 316 321 322 321 326 338 341 345 346 348 349 350 349 352 350 351 348 349 345 343 344 342 340 341 339 329 327 323 322 320 312 309 313
334 330 319 315 318 326 318 320 319 326 331 334 338 341 344 348 350 346 344 342 349 352 353 351 351 350 348 346 343 343 344 335 330 327 324 319 321 322
329 329 327 323 323 327 328 336 340 343 341 338 338 340 343 345 346 348 347 347 345 344 349 356 355 353 350 351 350 348 347 345 337 336 330 325 325 325
313 324 327 333 336 338 339 345 350 348 338 341 342 342 342 344 345 347 347 346 343 341 340 343 358 358 358 353 348 351 349 345 349 345 334 331 331 328
315 320 324 328 331 335 338 339 342 345 348 343 344 345 344 344 345 347 347 345 343 342 340 340 342 349 349 352 350 350 346 349 350 346 343 336 332 332
313 320 321 324 328 333 336 338 339 345 347 348 349 347 345 344 340 343 345 344 343 343 342 341 338 340 339 337 343 335 351 351 350 343 344 339 338 336
316 321 324 325 329 332 336 337 339 340 342 346 348 348 348 348 348 346 344 344 344 345 343 343 340 339 339 337 336 344 323 353 348 345 340 339 331 327
321 324 326 326 326 326 327 327 329 331 335 345 345 346 346 346 341 337 336 324 331 342 342 343 342 332 342 346 342 343 349 318 339 346 343 340 329 331
317 317 318 316 314 313 314 316 319 323 329 337 345 346 346 344 344 343 343 343 344 344 344 347 346 346 342 339 341 339 342 347 324 325 324 333 338 332
310 308 310 310 309 310 311 311 312 314 320 325 336 343 341 340 341 342 344 345 344 338 342 343 342 342 343 342 338 343 341 343 341 337 336 324 324 330
Wind_Speed
2 4 3 3 3 3 4 1 4 1 3 4 3 4 3 2 4 5 4 7 10 12 12 14 14 11 4 5 6 3 5 5 7 9 11 11 12 12
3 3 4 2 4 3 3 2 2 3 1 2 2 1 2 4 7 5 7 9 11 15 14 11 11 10 3 4 6 3 4 6 8 8 8 10 12 12
3 4 4 2 3 4 3 3 3 2 1 4 2 2 4 4 6 5 6 6 6 12 13 10 10 11 6 6 6 5 2 5 7 7 8 8 11 12
6 4 5 4 4 3 2 4 3 4 1 5 3 3 4 7 6 6 7 5 5 11 14 14 7 5 7 9 8 5 1 6 6 6 5 6 8 10
7 6 7 6 5 4 3 3 2 2 1 2 4 2 3 3 5 4 4 4 3 9 9 10 7 4 8 10 9 6 2 3 4 7 5 6 9 9
6 7 7 7 7 7 5 6 4 3 3 3 3 3 2 4 1 2 5 2 4 6 6 3 5 3 7 9 8 8 6 2 2 5 6 6 8 9
7 7 7 7 9 9 5 6 5 4 3 2 3 2 3 3 2 2 2 3 4 3 4 4 3 2 3 8 8 9 8 5 2 4 4 5 7 9
8 7 7 8 8 10 12 11 9 6 5 3 3 3 5 4 2 2 2 4 5 2 4 10 3 9 3 5 11 10 9 7 3 4 3 3 6 8
7 8 7 7 8 7 9 13 10 8 8 5 6 6 5 6 4 4 3 3 5 7 1 8 4 8 7 4 11 13 11 10 6 6 3 0 4 6
7 7 9 8 8 7 6 6 8 9 8 7 10 12 10 11 7 8 5 5 5 5 3 7 5 6 4 2 5 12 12 10 9 7 5 2 2 5
7 7 7 7 10 12 8 9 10 9 10 15 16 17 17 16 6 2 4 3 9 10 3 3 8 4 3 3 3 8 9 7 7 7 4 3 4 6
7 8 12 12 12 13 9 9 11 11 7 10 5 9 14 13 13 9 8 7 8 9 5 4 2 2 4 1 4 5 4 8 9 8 5 3 6 4
5 6 5 5 8 11 11 12 15 11 12 8 9 8 7 6 7 8 10 10 10 11 9 4 3 2 3 3 2 4 6 4 5 4 7 5 5 8
4 5 4 8 10 11 7 12 16 14 9 11 10 10 9 9 8 7 10 11 11 15 14 7 5 6 4 3 4 2 4 4 4 3 4 4 2 8
3 6 11 11 15 10 9 12 7 4 5 7 10 12 11 11 10 6 7 8 11 14 13 13 11 11 5 9 4 5 4 5 7 5 6 6 5 5
4 5 7 11 14 12 9 8 8 9 11 10 10 10 9 9 9 9 9 9 10 11 11 14 14 13 10 8 8 8 5 5 6 7 7 6 5 5
7 5 4 4 5 6 7 8 8 8 8 10 11 10 9 9 10 8 8 9 10 11 10 7 10 13 11 11 5 8 7 4 6 8 7 8 8 9
2 6 8 7 7 7 8 9 9 9 8 7 9 10 10 10 9 8 7 8 10 10 10 8 5 3 3 5 13 8 5 6 6 8 7 8 8 9
3 6 9 8 8 8 8 9 11 9 9 8 8 9 9 8 6 7 8 9 9 9 7 6 5 6 7 12 5 16 10 8 6 4 7 8 7 10
5 7 8 7 8 8 7 7 9 10 10 10 10 10 8 10 9 8 8 9 10 10 10 8 6 6 9 11 7 8 21 10 6 7 5 2 2 4
5 4 3 7 8 9 10 10 11 11 12 13 8 8 8 7 8 8 9 10 8 8 10 10 10 12 4 2 2 3 4 18 9 7 5 4 3 3
1 2 3 5 7 10 11 11 11 11 11 12 10 9 9 7 9 9 7 7 8 12 15 12 6 4 3 5 7 5 4 3 7 10 4 6 8 7
4 3 3 5 7 8 10 12 13 13 10 11 12 5 3 4 5 6 4 6 6 5 11 10 6 3 4 5 6 7 6 5 4 4 5 13 9 6
Wind_Direction
296 294 314 329 335 347 1 31 142 11 306 317 349 5 8 30 313 306 277 285 258 268 260 260 261 253 274 305 305 336 18 9 9 12 13 4 355 357
259 299 293 307 319 352 25 360 70 162 226 225 311 307 329 313 288 303 291 283 285 296 298 281 248 248 216 257 281 297 38 14 17 6 18 6 359 359
259 262 282 252 300 328 340 349 357 72 96 296 269 284 311 305 308 309 285 278 285 282 292 273 234 251 158 211 235 266 42 42 25 357 20 14 2 2
247 244 264 299 307 291 316 322 326 342 356 313 287 319 324 308 285 290 291 294 295 301 304 295 248 267 168 197 208 234 41 54 20 343 11 18 10 8
230 225 230 227 257 263 256 264 265 275 264 216 279 310 283 308 304 292 289 302 306 317 1 352 305 252 200 204 201 194 178 73 10 331 347 17 22 6
229 220 226 226 227 232 238 248 260 275 281 292 301 284 272 308 312 311 340 340 322 327 341 47 23 321 197 204 210 183 185 150 341 327 333 29 24 7
235 238 232 228 226 221 206 227 235 245 256 264 286 293 295 312 323 298 288 289 304 272 333 314 306 252 223 222 234 205 197 177 266 311 331 23 19 1
230 236 234 251 257 247 234 217 195 200 224 209 232 246 269 259 259 279 312 337 317 299 355 310 342 306 253 212 214 188 194 176 217 276 310 16 25 8
214 224 232 240 237 246 245 242 247 242 226 207 237 235 250 254 258 282 270 256 268 284 333 295 308 297 307 231 185 183 177 180 203 245 252 73 38 21
240 224 220 228 235 239 249 244 232 233 223 216 226 248 240 259 226 257 248 267 275 274 226 274 288 272 297 354 214 173 172 176 202 225 242 170 75 49
231 231 223 227 230 238 247 258 255 247 233 224 222 227 230 241 240 126 262 282 286 285 227 217 271 267 234 243 192 190 176 175 208 223 242 145 152 115
243 237 232 238 227 229 231 240 254 256 244 251 246 252 246 248 232 214 244 241 257 290 256 177 265 189 320 252 160 175 194 204 213 227 232 165 191 150
251 259 257 273 271 276 266 258 256 279 267 248 256 257 251 228 233 214 217 225 242 245 252 180 228 245 213 261 214 188 192 181 200 221 229 206 222 172
303 318 311 344 311 281 271 247 249 257 258 255 259 258 252 247 241 233 223 227 234 244 260 192 240 211 207 244 235 178 191 190 180 195 196 153 205 183
293 290 292 297 289 291 257 257 273 248 252 259 249 245 244 249 254 244 243 237 241 244 248 242 237 244 208 248 237 214 162 211 192 178 185 185 182 169
288 295 283 275 263 256 275 258 241 236 238 239 248 250 246 241 242 235 245 252 259 264 239 232 229 231 241 234 233 248 200 199 187 198 188 195 191 196
327 297 302 277 279 278 277 270 262 251 228 240 239 239 239 237 243 244 241 248 250 260 267 249 226 227 228 233 220 231 232 216 197 185 173 197 205 199
289 292 288 278 268 265 266 274 270 270 251 236 241 241 239 237 242 243 241 243 248 251 252 245 223 196 217 257 221 235 208 228 223 183 193 194 209 206
236 269 275 275 276 270 268 277 285 276 278 269 257 233 244 248 235 243 241 242 247 249 243 236 227 207 226 246 257 214 221 225 221 183 190 192 211 212
249 262 267 267 272 278 283 280 287 287 280 269 261 255 251 251 237 240 244 256 251 252 257 245 223 213 226 242 236 238 205 224 201 219 198 193 75 64
245 254 302 331 330 330 324 314 304 293 311 287 267 264 260 234 224 222 241 262 286 279 267 250 236 239 246 28 308 258 255 213 200 191 178 180 153 165
274 338 9 345 325 318 312 307 303 303 301 307 268 259 257 226 236 231 223 231 250 262 267 266 241 236 220 199 244 228 225 254 218 241 298 193 163 197
6 14 1 326 312 303 302 304 302 300 301 297 309 281 261 276 259 244 234 227 205 301 305 287 258 190 242 227 244 261 235 210 210 191 201 223 216 184